Weather History for Crestview, FL

Change the Weather History Date:

Wednesday, May 7, 2014

  Actual Average Record
Temperature  
Mean Temperature 68 °F -  
Max Temperature 84 °F - - ()
Min Temperature 53 °F - - ()
Cooling Degree Days 3    
Growing Degree Days 18 (Base 50)    
Moisture  
Dew Point 58 °F    
Average Humidity 82    
Maximum Humidity 100    
Minimum Humidity 39    
Precipitation  
Precipitation 0.00 in - - ()
Sea Level Pressure  
Sea Level Pressure 30.08 in    
Wind  
Wind Speed 3 mph (SSE)    
Max Wind Speed 15 mph    
Max Gust Speed 23 mph    
Visibility 6 miles    
Events Fog    
T = Trace of Precipitation, MM = Missing Value Source: NWS Daily Summary

Daily Weather History Graph

Daily Weather History Graph

Search for Another Location

Airport:

Trip Planner

Search our weather history database for the weather conditions in past years. The results will help you decide how hot, cold, wet, or windy it might be!

Date:

Astronomy

May. 07, 2014 Rise Set
Actual Time 5:57 AM CDT 7:28 PM CDT
Civil Twilight 5:31 AM CDT 7:54 PM CDT
Nautical Twilight 5:00 AM CDT 8:25 PM CDT
Astronomical Twilight 4:27 AM CDT 8:58 PM CDT
Moon 1:00 PM CDT (5/7) 1:26 AM CDT (5/7)
Length of Visible Light 14h 23m
Length of Day
13h 31m
First Quarter, 55% of the Moon is Illuminated
May 7
First Quarter
May 14
Full
May 21
Last Quarter
May 28
New
Jun 5
First Quarter

Hourly Weather History & Observations

Time (CDT) Temp. Heat Index Dew Point Humidity Pressure Visibility Wind Dir Wind Speed Gust Speed Precip Events Conditions
12:58 AM 61.5 °F - 61.3 °F 99% 30.03 in 10.0 mi South 4.6 mph - N/A   Clear
1:58 AM 58.8 °F - 58.6 °F 99% 30.02 in 10.0 mi SSE 3.5 mph - N/A   Clear
2:58 AM 60.8 °F - 60.4 °F 99% 30.03 in 10.0 mi South 3.5 mph - N/A   Clear
3:58 AM 58.1 °F - 57.9 °F 99% 30.03 in 8.0 mi Calm Calm - N/A   Clear
4:13 AM 57.2 °F - 57.2 °F 100% 30.02 in 1.0 mi Calm Calm - N/A   Clear
4:23 AM 55.4 °F - 55.4 °F 100% 30.02 in 2.5 mi Calm Calm - N/A   Clear
4:28 AM 55.4 °F - 55.4 °F 100% 30.02 in 3.0 mi Calm Calm - N/A   Clear
4:33 AM 55.4 °F - 55.4 °F 100% 30.02 in 1.2 mi Calm Calm - N/A   Clear
4:38 AM 55.4 °F - 55.4 °F 100% 30.02 in 0.2 mi Calm Calm - N/A Fog Fog
4:53 AM 55.4 °F - 55.4 °F 100% 30.03 in 0.5 mi Calm Calm - N/A Fog Fog
4:58 AM 55.4 °F - 55.4 °F 100% 30.04 in 0.2 mi Calm Calm - N/A Fog Fog
5:33 AM 55.4 °F - 55.4 °F 100% 30.05 in 0.5 mi North 2.3 mph - N/A Fog Fog
5:53 AM 53.6 °F - 53.6 °F 100% 30.06 in 0.5 mi North 2.3 mph - N/A Fog Fog
5:58 AM 54.1 °F - 54.1 °F 100% 30.07 in 0.8 mi North 2.3 mph - N/A   Mist
6:03 AM 53.6 °F - 53.6 °F 100% 30.07 in 0.5 mi Calm Calm - N/A Fog Fog
6:08 AM 55.4 °F - 55.4 °F 100% 30.07 in 0.2 mi NNE 1.2 mph - N/A Fog Fog
6:58 AM 57.7 °F - 57.7 °F 100% 30.10 in 0.2 mi NE 2.3 mph - N/A Fog Fog
7:23 AM 59.0 °F - 59.0 °F 100% 30.09 in 0.2 mi Calm Calm - N/A Fog Fog
7:24 AM 59.0 °F - 59.0 °F 100% 30.09 in 0.2 mi Calm Calm - N/A Fog Fog
7:29 AM 60.8 °F - 60.8 °F 100% 30.09 in 0.2 mi Calm Calm - N/A Fog Fog
7:34 AM 60.8 °F - 60.8 °F 100% 30.10 in 0.5 mi Calm Calm - N/A Fog Fog
7:39 AM 62.6 °F - 62.6 °F 100% 30.10 in 1.5 mi ENE 2.3 mph - N/A   Clear
7:44 AM 62.6 °F - 62.6 °F 100% 30.10 in 7.0 mi NE 1.2 mph - N/A   Clear
7:58 AM 63.1 °F - 63.1 °F 100% 30.11 in 10.0 mi Calm Calm - N/A   Clear
8:55 AM 71.1 °F - 71.1 °F 100% 30.13 in 10.0 mi SSE 5.8 mph - N/A   Scattered Clouds
9:55 AM 77.5 °F - 62.8 °F 60% 30.13 in 10.0 mi South 8.1 mph - N/A   Mostly Cloudy
10:55 AM 79.5 °F - 60.8 °F 53% 30.15 in 10.0 mi South 9.2 mph - N/A   Mostly Cloudy
11:55 AM 80.6 °F 81.1 °F 59.0 °F 48% 30.14 in 10.0 mi South 11.5 mph - N/A   Scattered Clouds
12:35 PM 82.4 °F 82.5 °F 59.0 °F 45% 30.13 in 10.0 mi South 12.7 mph 19.6 mph N/A   Partly Cloudy
12:55 PM 82.8 °F 82.5 °F 58.5 °F 43% 30.13 in 10.0 mi South 15.0 mph 23.0 mph N/A   Scattered Clouds
1:55 PM 83.7 °F 83.0 °F 57.0 °F 40% 30.13 in 10.0 mi South 8.1 mph - N/A   Mostly Cloudy
2:55 PM 82.4 °F 81.9 °F 56.5 °F 41% 30.12 in 10.0 mi SSE 9.2 mph - N/A   Mostly Cloudy
3:55 PM 83.5 °F 82.8 °F 56.8 °F 40% 30.09 in 10.0 mi SSW 10.4 mph - N/A   Mostly Cloudy
4:55 PM 82.9 °F 82.1 °F 55.9 °F 39% 30.10 in 10.0 mi SSE 6.9 mph - N/A   Scattered Clouds
5:55 PM 82.2 °F 81.9 °F 57.0 °F 42% 30.09 in 10.0 mi SSW 5.8 mph - N/A   Scattered Clouds
6:55 PM 78.4 °F - 57.2 °F 48% 30.08 in 10.0 mi South 5.8 mph - N/A   Scattered Clouds
7:56 PM 72.0 °F - 57.0 °F 59% 30.09 in 10.0 mi SSE 4.6 mph - N/A   Scattered Clouds
8:55 PM 68.0 °F - 57.0 °F 68% 30.09 in 10.0 mi SSE 3.5 mph - N/A   Partly Cloudy
9:55 PM 64.4 °F - 57.9 °F 79% 30.10 in 10.0 mi South 3.5 mph - N/A   Clear
10:55 PM 64.2 °F - 58.6 °F 82% 30.11 in 10.0 mi SSE 3.5 mph - N/A   Clear
11:55 PM 64.2 °F - 58.6 °F 82% 30.11 in 10.0 mi South 3.5 mph - N/A   Clear